www.pogodaiklimat.ru

Погода и климат >> Архив погоды >> Норвегия >> Сволваер аэропорт


ПОГОДА в Сволваер аэропорту

  • Прогноз погоды в Сволваер аэропорту
  • Монитор погоды в Сволваер аэропорту

АРХИВ ПОГОДЫ в Сволваер аэропорту

Время (UTC), дата Ветер
(напр.,м/с)
 
Видим.   Явления Облачность Т
(С)
Тd
(С)
f
(%)
Тe
(С)
Тes
(С)
Комфортность P
(гПа)
Po
(гПа)
Тmin
(С)
Tmax
(С)
R
(мм)
R24
(мм)
S
(см)
04 19.06 В 4
{5}
н/о н/о +10.4 +8.0 85 +8 +8 1008.1 1007.0
05 19.06 В 4
{5}
н/о н/о +10.2 +8.5 89 +7 +7 1008.2 1007.1
06 19.06 В 4
{5}
н/о н/о +10.5 +8.9 90 +8 +8 1008.4 1007.3 +9.8 +10.7
07 19.06 В 1
{4}
н/о н/о +10.7 +8.8 88 +10 +10 1008.8 1007.8
08 19.06 В 2
{3}
н/о н/о +10.8 +8.7 87 +9 +9 1009.2 1008.1
09 19.06 ЮВ 2
{3}
н/о н/о +11.7 +8.9 83 +11 +11 1009.6 1008.5
10 19.06 Ю 2
{3}
н/о н/о +13.0 +9.1 77 +12 +12 1010.0 1008.9
11 19.06 Ю 3
{4}
н/о н/о +13.4 +9.7 78 +12 +12 1010.3 1009.2
12 19.06 ЮЗ 4
{5}
н/о н/о +12.4 +9.6 83 +10 +10 1010.8 1009.8
13 19.06 ЮЗ 5
{6}
н/о н/о +12.6 +9.3 80 +10 +10 1011.1 1010.0
14 19.06 ЮЗ 6
{8}
н/о н/о +12.8 +9.4 80 +10 +10 1011.3 1010.3
15 19.06 ЮЗ 5
{7}
н/о н/о +12.4 +8.9 79 +10 +10 1011.5 1010.4
16 19.06 ЮЗ 5
{8}
н/о н/о +11.8 +8.5 80 +9 +9 1011.9 1010.8
17 19.06 ЮЗ 3
{7}
н/о н/о +11.7 +8.4 80 +10 +10 1012.2 1011.1
18 19.06 Ю 5
{8}
н/о н/о +11.5 +9.1 85 +9 +9 1012.1 1011.0 +10.3 +13.7
19 19.06 ЮЗ 3
{5}
н/о н/о +11.3 +9.2 87 +9 +9 1012.4 1011.3
20 19.06 Ю 2
{4}
н/о н/о +11.4 +9.3 87 +10 +10 1012.6 1011.5
21 19.06 Ю 2
{3}
н/о н/о +11.0 +9.4 90 +10 +10 1012.7 1011.6
22 19.06 Ю 2
{3}
н/о н/о +11.0 +9.6 91 +10 +10 1012.6 1011.5
23 19.06 Ю 3
{4}
н/о н/о +11.1 +9.9 92 +9 +9 1012.6 1011.5
00 20.06 Ю 2
{5}
н/о н/о +10.9 +9.7 92 +9 +9 1012.9 1011.8
01 20.06 В 3
{3}
н/о н/о +10.7 +9.5 92 +9 +9 1012.8 1011.7
02 20.06 В 2
{4}
н/о н/о +10.8 +9.4 91 +9 +9 1012.8 1011.7
03 20.06 В 4
{4}
н/о н/о +10.8 +9.6 92 +8 +8 1012.5 1011.4
04 20.06 СВ 2
{4}
н/о н/о +11.5 +9.3 86 +10 +10 1012.1 1011.0
05 20.06 СВ 4
{6}
н/о н/о +12.7 +9.0 78 +11 +11 1011.8 1010.7
06 20.06 СВ 4
{8}
н/о н/о +13.7 +8.8 72 +12 +12 1011.4 1010.3 +10.5 +13.7
07 20.06 СВ 5
{7}
н/о н/о +14.5 +8.5 67 +13 +13 1011.0 1010.0
08 20.06 СВ 5
{7}
н/о н/о +14.9 +7.2 60 +14 +14 1010.6 1009.5
09 20.06 СВ 4
{6}
н/о н/о +15.8 +7.8 59 +15 +15 1010.4 1009.3
10 20.06 СВ 4
{7}
н/о н/о +16.3 +7.0 54 +16 +16 1010.1 1009.0
11 20.06 СВ 4
{7}
н/о н/о +17.1 +7.5 53 +17 +17 1009.6 1008.5
12 20.06 СВ 4
{7}
н/о н/о +17.3 +6.2 48 +17 +17 1009.1 1008.1
13 20.06 В 3
{5}
н/о н/о +17.4 +8.3 55 +17 +17 1008.7 1007.6
14 20.06 В 4
{6}
н/о н/о +17.9 +6.8 48 +18 +18 1008.1 1007.1
15 20.06 СВ 5
{7}
н/о н/о +17.2 +6.7 50 +17 +17 1007.6 1006.6
16 20.06 В 3
{5}
н/о н/о +17.0 +8.2 56 +17 +17 1007.1 1006.1
17 20.06 СВ 3
{6}
н/о н/о +17.0 +6.8 51 +17 +17 1006.4 1005.3
18 20.06 В 5
{8}
н/о н/о +17.2 +7.3 52 +17 +17 1006.1 1005.1 +13.6 +18.6
19 20.06 ЮВ 4
{9}
н/о н/о +15.3 +8.5 64 +14 +14 1005.8 1004.8
20 20.06 В 7
{9}
н/о н/о +16.3 +7.3 55 +15 +15 1005.2 1004.2
21 20.06 В 8
{13}
н/о н/о +15.5 +7.0 57 +14 +14 1005.0 1003.9
22 20.06 В 8
{12}
н/о н/о +15.5 +7.0 57 +14 +14 1004.5 1003.4
23 20.06 В 9
{14}
н/о н/о +15.4 +7.2 58 +13 +13 1003.8 1002.8
00 21.06 В 9
{14}
н/о н/о +15.1 +7.7 61 +13 +13 1003.6 1002.6
01 21.06 В 8
{12}
н/о н/о +14.6 +8.1 65 +12 +12 1003.2 1002.1
02 21.06 СВ 7
{10}
н/о н/о +14.8 +8.3 65 +13 +13 1003.0 1001.9
03 21.06 СВ 6
{9}
н/о н/о +14.8 +7.8 63 +13 +13 1002.7 1001.6
04 21.06 В 7
{10}
н/о н/о +14.5 +8.2 66 +13 +13 1002.3 1001.3
05 21.06 В 6
{8}
н/о н/о +14.7 +8.2 65 +13 +13 1002.1 1001.1
06 21.06 В 5
{12}
н/о н/о +14.7 +8.7 67 +13 +13 1002.2 1001.1 +14.3 +17.0
07 21.06 В 3
{5}
н/о н/о +14.9 +8.8 67 +14 +14 1002.3 1001.3
08 21.06 В 3
{7}
н/о н/о +15.1 +9.0 67 +14 +14 1002.6 1001.5
09 21.06 Ю 4
{7}
н/о н/о +14.3 +9.5 73 +13 +13 1003.1 1002.1
10 21.06 ЮЗ 3
{6}
н/о н/о +12.9 +11.1 89 +11 +11 1003.4 1002.4
11 21.06 Ю 3
{4}
н/о н/о +12.6 +11.5 93 +11 +11 1003.7 1002.7
12 21.06 Ю 3
{7}
н/о н/о +12.2 +11.4 95 +10 +10 1004.0 1002.9
13 21.06 Ю 4
{5}
н/о н/о +12.2 +11.6 96 +10 +10 1004.1 1003.1
14 21.06 Ю 5
{6}
н/о н/о +11.9 +11.1 95 +9 +9 1004.4 1003.3
15 21.06 Ю 5
{6}
н/о н/о +11.5 +10.9 96 +9 +9 1004.4 1003.3
16 21.06 Ю 5
{7}
н/о н/о +11.3 +10.7 96 +8 +8 1004.6 1003.6
17 21.06 ЮЗ 5
{7}
н/о н/о +10.8 +10.3 97 +8 +8 1004.9 1003.9
18 21.06 Ю 6
{8}
н/о н/о +10.8 +10.3 97 +7 +7 1005.0 1003.9 +10.7 +15.5
19 21.06 ЮЗ 7
{9}
н/о н/о +10.7 +10.1 96 +7 +7 1004.9 1003.8
20 21.06 ЮЗ 6
{9}
н/о н/о +10.8 +10.0 95 +7 +7 1005.3 1004.3
21 21.06 ЮЗ 7
{10}
н/о н/о +10.7 +9.8 94 +7 +7 1005.5 1004.4
22 21.06 ЮЗ 8
{11}
н/о н/о +10.7 +9.5 92 +7 +7 1005.9 1004.9
23 21.06 ЮЗ 7
{10}
н/о н/о +10.6 +9.2 91 +7 +7 1006.2 1005.2
00 22.06 ЮЗ 8
{11}
н/о н/о +10.5 +8.9 90 +7 +7 1006.2 1005.1
01 22.06 ЮЗ 7
{10}
н/о н/о +10.5 +9.1 91 +7 +7 1006.5 1005.5
02 22.06 ЮЗ 5
{9}
н/о н/о +10.6 +9.0 90 +8 +8 1006.7 1005.7
03 22.06 ЮЗ 4
{8}
н/о н/о +10.4 +9.5 94 +8 +8 1006.9 1005.8
04 22.06 ЮЗ 3
{6}
н/о н/о +10.9 +9.7 92 +9 +9 1006.5 1005.5
05 22.06 ЮЗ 4
{5}
н/о н/о +11.1 +9.5 90 +9 +9 1006.4 1005.3
06 22.06 ЮЗ 4
{10}
н/о н/о +11.1 +9.4 89 +9 +9 1006.4 1005.4 +10.4 +11.3
07 22.06 ЮЗ 4
{5}
н/о н/о +11.2 +9.5 89 +9 +9 1006.7 1005.7
08 22.06 ЮЗ 4
{6}
н/о н/о +11.4 +9.0 85 +9 +9 1006.8 1005.7
09 22.06 ЮЗ 5
{6}
н/о н/о +11.5 +9.1 85 +9 +9 1007.1 1006.0
10 22.06 ЮЗ 5
{7}
н/о н/о +11.3 +9.2 87 +9 +9 1007.5 1006.4
11 22.06 ЮЗ 6
{8}
н/о н/о +10.9 +8.3 84 +8 +8 1007.6 1006.5
12 22.06 ЮЗ 6
{8}
н/о н/о +11.4 +8.6 83 +8 +8 1008.0 1006.9
13 22.06 ЮЗ 7
{9}
н/о н/о +11.2 +8.1 81 +8 +8 1008.4 1007.3
14 22.06 ЮЗ 8
{10}
н/о н/о +11.4 +7.9 79 +8 +8 1008.6 1007.5
15 22.06 ЮЗ 7
{10}
н/о н/о +10.9 +8.0 82 +7 +7 1008.9 1007.9
16 22.06 ЮЗ 7
{10}
н/о н/о +10.9 +7.8 81 +7 +7 1009.4 1008.4
17 22.06 ЮЗ 6
{8}
н/о н/о +11.0 +8.2 83 +8 +8 1009.6 1008.5
18 22.06 ЮЗ 5
{10}
н/о н/о +10.7 +7.8 82 +8 +8 1009.7 1008.7 +10.7 +11.9
19 22.06 ЮЗ 5
{7}
н/о н/о +10.5 +7.9 84 +8 +8 1009.9 1008.9
20 22.06 ЮЗ 5
{7}
н/о н/о +10.4 +8.5 88 +7 +7 1010.1 1009.1
21 22.06 ЮЗ 5
{8}
н/о н/о +9.9 +8.2 89 +7 +7 1010.5 1009.4
22 22.06 ЮЗ 6
{9}
н/о н/о +10.2 +8.0 86 +7 +7 1010.8 1009.8
23 22.06 ЮЗ 6
{9}
н/о н/о +10.1 +8.0 87 +7 +7 1011.2 1010.1
00 23.06 ЮЗ 5
{10}
н/о н/о +9.9 +7.8 87 +7 +7 1011.6 1010.5
01 23.06 ЮЗ 6
{9}
н/о н/о +10.0 +7.8 86 +7 +7 1011.9 1010.8
02 23.06 ЮЗ 5
{8}
н/о н/о +10.0 +7.8 86 +7 +7 1012.5 1011.4
03 23.06 ЮЗ 7
{8}
н/о н/о +10.0 +8.1 88 +6 +6 1012.6 1011.5
04 23.06 ЮЗ 8
{10}
н/о н/о +10.0 +7.4 84 +6 +6 1012.8 1011.8
05 23.06
{09}
н/о 1012.3
06 23.06 ЮЗ 6
{10}
н/о н/о +10.7 +7.6 81 +8 +8 1013.8 1012.7 +9.6 +10.9
07 23.06 ЮЗ 7
{8}
н/о н/о +11.0 +7.9 81 +8 +8 1014.1 1013.0
08 23.06 ЮЗ 8
{10}
н/о н/о +10.3 +8.4 88 +6 +6 1014.4 1013.4
09 23.06 ЮЗ 6
{9}
н/о н/о +10.9 +8.0 82 +8 +8 1015.3 1014.2
10 23.06 ЮЗ 5
{9}
н/о н/о +11.5 +8.2 80 +9 +9 1015.7 1014.7
11 23.06 ЮЗ 5
{8}
н/о н/о +11.5 +8.9 84 +9 +9 1016.4 1015.3
12 23.06 ЮЗ 6
{10}
н/о н/о +11.1 +8.9 86 +8 +8 1016.8 1015.8
13 23.06 ЮЗ 6
{9}
н/о н/о +11.0 +8.6 85 +8 +8 1017.4 1016.4
14 23.06 ЮЗ 5
{9}
н/о н/о +10.8 +8.7 87 +8 +8 1018.0 1016.9
15 23.06 ЮЗ 6
{8}
н/о н/о +11.5 +8.2 80 +9 +9 1018.4 1017.3
16 23.06 ЮЗ 6
{8}
н/о н/о +11.7 +8.2 79 +9 +9 1018.9 1017.8
17 23.06 ЮЗ 6
{8}
н/о н/о +10.6 +7.8 83 +7 +7 1019.1 1018.0
18 23.06 ЮЗ 6
{9}
н/о н/о +10.8 +8.2 84 +8 +8 1019.4 1018.3 +9.7 +12.2
19 23.06 ЮЗ 5
{7}
н/о н/о +10.6 +8.0 84 +8 +8 1019.8 1018.7
20 23.06 ЮЗ 6
{8}
н/о н/о +10.0 +8.1 88 +6 +6 1020.1 1019.0
21 23.06 ЮЗ 5
{8}
н/о н/о +10.1 +8.2 88 +7 +7 1020.6 1019.5
22 23.06 ЮЗ 6
{7}
н/о н/о +10.1 +8.0 87 +7 +7 1021.0 1019.9
23 23.06 ЮЗ 5
{8}
н/о н/о +9.8 +8.2 90 +7 +7 1021.4 1020.3
00 24.06 ЮЗ 6
{8}
н/о н/о +9.9 +8.5 91 +6 +6 1021.8 1020.7
01 24.06 ЮЗ 7
{10}
н/о н/о +10.0 +8.8 92 +6 +6 1021.8 1020.7
02 24.06 ЮЗ 7
{9}
н/о н/о +9.9 +8.0 88 +6 +6 1022.1 1021.0
03 24.06 ЮЗ 7
{9}
н/о н/о +9.8 +8.1 89 +6 +6 1022.6 1021.5
04 24.06 ЮЗ 6
{9}
н/о н/о +9.8 +7.8 87 +6 +6 1022.8 1021.8
05 24.06 ЮЗ 8
{11}
н/о н/о +9.5 +6.1 79 +5 +5 1023.4 1022.3
06 24.06 ЮЗ 6
{11}
н/о н/о +9.8 +6.5 80 +6 +6 1024.0 1022.9 +9.3 +10.8
07 24.06 ЮЗ 8
{11}
н/о н/о +9.5 +7.5 87 +5 +5 1024.4 1023.3
08 24.06 ЮЗ 6
{10}
н/о н/о +10.0 +7.1 82 +7 +7 1024.9 1023.8
09 24.06 ЮЗ 7
{10}
н/о н/о +10.6 +7.3 80 +7 +7 1025.3 1024.2
10 24.06 ЮЗ 8
{10}
н/о н/о +10.1 +7.4 83 +6 +6 1025.8 1024.7
11 24.06 ЮЗ 6
{10}
н/о н/о +11.5 +6.8 73 +9 +9 1026.0 1024.9
12 24.06 ЮЗ 8
{11}
н/о н/о +10.9 +7.2 78 +7 +7 1026.5 1025.4
13 24.06 ЮЗ 7
{10}
н/о н/о +10.1 +7.2 82 +6 +6 1026.9 1025.9
14 24.06 ЮЗ 7
{11}
н/о н/о +10.2 +7.1 81 +7 +7 1027.0 1026.0
15 24.06 ЮЗ 5
{9}
н/о н/о +9.8 +6.9 82 +7 +7 1027.2 1026.1
16 24.06 ЮЗ 5
{8}
н/о н/о +9.5 +7.1 85 +6 +6 1027.4 1026.3
17 24.06 ЮЗ 4
{7}
н/о н/о +9.5 +6.8 83 +7 +7 1027.7 1026.6
18 24.06 ЮЗ 3
{11}
н/о н/о +9.2 +6.8 85 +7 +7 1027.8 1026.7 +8.9 +12.5
19 24.06 ЮЗ 3
{5}
н/о н/о +9.2 +7.3 88 +7 +7 1027.7 1026.6
20 24.06 ЮЗ 4
{6}
н/о н/о +9.2 +6.8 85 +6 +6 1027.8 1026.7
21 24.06 ЮЗ 4
{7}
н/о н/о +9.0 +7.3 89 +6 +6 1027.8 1026.7
22 24.06 ЮЗ 5
{8}
н/о н/о +9.0 +7.5 90 +5 +5 1027.6 1026.5
23 24.06 ЮЗ 7
{10}
н/о н/о +8.5 +6.8 89 +4 +4 1027.3 1026.2
00 25.06 ЮЗ 8
{11}
н/о н/о +8.7 +7.2 90 +4 +4 1026.7 1025.6
01 25.06 ЮЗ 6
{10}
н/о н/о +8.7 +7.6 93 +5 +5 1026.4 1025.3
02 25.06 ЮЗ 4
{8}
н/о н/о +8.7 +7.3 91 +6 +6 1026.3 1025.3
03 25.06 ЮЗ 3
{6}
н/о н/о +8.6 +7.2 91 +6 +6 1026.2 1025.1
04 25.06 ЮЗ 3
{4}
н/о н/о +8.9 +7.5 91 +6 +6 1026.1 1025.0
05 25.06 ЮЗ 5
{6}
н/о н/о +9.1 +7.6 90 +6 +6 1026.1 1025.0
06 25.06 ЮЗ 5
{10}
н/о н/о +10.0 +7.4 84 +7 +7 1026.0 1024.9 +8.4 +10.2
07 25.06 ЮЗ 5
{8}
н/о н/о +10.1 +7.5 84 +7 +7 1025.9 1024.8
08 25.06 ЮЗ 6
{8}
н/о н/о +10.2 +7.1 81 +7 +7 1025.9 1024.9
09 25.06 ЮЗ 5
{7}
н/о н/о +10.4 +7.6 83 +7 +7 1026.1 1025.0
10 25.06 ЮЗ 6
{8}
н/о н/о +10.5 +8.1 85 +7 +7 1026.0 1024.9
11 25.06 ЮЗ 7
{9}
н/о н/о +10.5 +7.9 84 +7 +7 1025.8 1024.7
12 25.06 ЮЗ 6
{9}
н/о н/о +10.1 +7.5 84 +7 +7 1025.9 1024.8
13 25.06 ЮЗ 8
{10}
н/о н/о +10.2 +7.5 83 +6 +6 1025.5 1024.4
14 25.06 ЮЗ 8
{10}
н/о н/о +11.1 +6.9 75 +8 +8 1025.0 1023.9
15 25.06 ЮЗ 6
{10}
н/о н/о +9.7 +6.6 81 +6 +6 1024.6 1023.5
16 25.06 ЮЗ 7
{10}
н/о н/о +9.8 +6.7 81 +6 +6 1024.1 1023.0
17 25.06 ЮЗ 6
{8}
н/о н/о +9.7 +6.6 81 +6 +6 1023.6 1022.6
18 25.06 ЮЗ 6
{10}
н/о н/о +9.5 +6.8 83 +6 +6 1023.3 1022.2 +9.5 +11.2
19 25.06 ЮЗ 5
{7}
н/о н/о +9.2 +6.5 83 +6 +6 1022.9 1021.8
20 25.06 ЮЗ 5
{7}
н/о н/о +9.2 +7.0 86 +6 +6 1022.5 1021.4
21 25.06 ЮЗ 4
{8}
н/о н/о +9.1 +6.6 84 +6 +6 1022.2 1021.1
22 25.06 ЮЗ 5
{6}
н/о н/о +9.0 +6.3 83 +6 +6 1021.9 1020.8
23 25.06 ЮЗ 4
{6}
н/о н/о +9.0 +6.8 86 +6 +6 1021.5 1020.4
00 26.06 ЮЗ 5
{8}
н/о н/о +8.9 +7.2 89 +5 +5 1021.0 1019.9
01 26.06 ЮЗ 6
{8}
н/о н/о +8.4 +7.5 94 +4 +4 1020.6 1019.5
02 26.06 ЮЗ 5
{8}
н/о н/о +8.4 +7.7 95 +5 +5 1020.1 1019.1
03 26.06 ЮЗ 5
{7}
н/о н/о +8.6 +7.7 94 +5 +5 1019.6 1018.5

 

Местоположение метеостанции Сволваер аэропорт (Норвегия): широта 68.25 долгота 14.67 высота над уровнем моря 9 м.

В архиве по умолчанию представлена погода в Сволваер аэропорту за последнюю неделю. Архивные данные за месяц целиком и за предыдущие месяцы, начиная с января 2011 года, Вы можете получить, выбрав интересующий диапазон дат из раскрывающегося списка и нажав кнопку "Ввод!".


*Определитесь, кто Вы:
робот инопланетянин человек

Внимание! Время в таблицах - всемирное. Для получения местного времени необходимо прибавить поправку, которая равна 1 ч.

Смотрите также архив погоды в соседних городах и на ближайших метеорологических станциях:

Погода на Маяке Skrova (Норвегия) (11 км)
Погода в Стокмаркнес аэропорту (Норвегия) (40 км)
Погода в Бё (Норвегия) (41 км)
Погода в Лекнесе (Норвегия) (45 км)
Погода на Маяке Rotvaer (Норвегия) (54 км)
Погода в Сортланне (Норвегия) (59 км)
Погода в Драге (Норвегия) (62 км)
Погода в Аэропорту Харстад/Нарвик (Норвегия) (87 км)
Погода в Харстаде (Норвегия) (97 км)
Погода в Хеллигвере (Норвегия) (100 км)

Пояснения к столбцам:

Ветер - указаны скорость ветра в м/с - средняя за 10 мин, порывы в срок и между сроками (в фигурных скобках) и направление, откуда дует ветер: С - северный, СВ - северо-восточный, В - восточный, ЮВ - юго-восточный, Ю - южный, ЮЗ - юго-западный, З - западный, СЗ - северо-западный.
Видимость - горизонтальная дальность видимости в метрах или километрах. При видимости от 1 до 10 км при отсутствии осадков обычно наблюдается дымка, при ухудшении видимости до 1 км и менее - туман. В сухую погоду видимость может ухудшаться дымом, пылью или мглою.
Явления - указаны атмосферные явления, наблюдавшиеся в срок или в последний час перед сроком; фигурными скобками обозначены явления, наблюдавшиеся между сроками (за 1-3 часа до срока); квадратными скобками обозначены град или гололедные отложения с указанием их диаметра в мм.
Облачность - указаны через наклонную черту общая и нижняя облачность в баллах и высота нижней границы облаков в метрах; квадратными скобками обозначены формы облаков: Ci - перистые, Cs - перисто-слоистые, Cc - перисто-кучевые, Ac - высококучевые, As - высокослоистые, Sc - слоисто-кучевые, Ns - слоисто-дождевые, Cu - кучевые, Cb - кучево-дождевые. Подробнее классификацию облаков см. в Атласе облаков (PDF).
T - Температура воздуха - температура, измеренная на высоте 2 м над землей.
Td - Температура точки росы - температура, при понижении до которой содержащийся в воздухе водяной пар достигнет насыщения.
f - Относительная влажность воздуха - влажноcть воздуха, измеренная на высоте 2 м над землей.
Te - Эффективная температура - температура, которую ощущает одетый по сезону человек в тени. Характеристика душности погоды. При расчете учитывается влияние влажности воздуха и скорости ветра на теплоощущения человека.
Tes - Эффективная температура на солнце - температура, которую ощущает человек, с поправкой на солнечный нагрев. Характеристика знойности погоды. Зависит от высоты солнца над горизонтом, облачности и скорости ветра. Ночью, в пасмурную погоду, а также при ветре 12 м/с и более поправка равна нулю.
P - Атмосферное давление - приведенное к уровню моря атмосферное давление.
Po - Атмосферное давление - измеренное на уровне метеостанции атмосферное давление.
Tmin - Минимальная температура - минимум температуры воздуха на высоте 2 м над землей.
Tmax - Максимальная температура - максимум температуры воздуха на высоте 2 м над землей.
R - Количество осадков - Количество выпавших осадков за период времени, мм. При наведении курсора мыши на число - период времени, за который выпало указанное количество осадков.
R24 - Количество осадков - Количество выпавших осадков за 24 часа, мм.
S - Снежный покров - Высота снежного покрова, см. При наведении курсора мыши на число - состояние снежного покрова и степень покрытия местности в баллах.